User: anonymous   Login
Location: Little Chesterford
(52.0500°N, 0.1833°E)
Time: 01:41:12
(UTC+00:00)
Language:

Cosmos 1470 Rocket - Orbit

View from above orbital plane
View from above orbital plane
View from above satellite
View from above satellite

Ground track
Ground track

The orbit data is extracted from the following two-line orbital elements,

1 14148U 83061B   24062.69835414  .00000590  00000-0  67299-4 0  9991
2 14148  82.5194 133.6527 0021577 169.2535 190.9146 14.84292018198130
Epoch (UTC): 02 March 2024 16:45:37
Eccentricity: 0.0021577
inclination: 82.5194°
perigee height: 601 km
apogee height: 631 km
right ascension of ascending node: 133.6527°
argument of perigee: 169.2535°
revolutions per day: 14.84292018
mean anomaly at epoch: 190.9146°
orbit number at epoch: 19813

The dashed part of the orbit path shows where the satellite is in the earth's shadow,  

DLR